SCP
0 0 0 0 0 0 0 0 0 -0 -0 0 0 0 0 0 0 0 0 0 0 0 0 0 0 0 0 0 0 0 0 0
0 0 0 0 0 0 0 0 -0 -0 -0 -0 0 0 0 0 0 0 0 0 0 0 0 0 0 0 0 0 0 0 0 0
0 0 0 0 0 0 0 -0 -0 -0 -0 -0 -0 0 0 0 0 0 0 0 0 0 0 0 0 0 0 0 0 0 0 0
0 0 -0 -0 0 -0 0 -0 -0 -0 -0 -0 -0 0 0 0 0 0 0 0 0 0 0 0 0 0 0 0 0 0 0 0
0 0 -0 0 0 0 0 -0 -0 -0 -0 -0 0 0 0 0 0 0 0 0 0 0 0 0 0 0 0 0 0 0 0 0
0 0 0 0 0 0 0 0 0 0 0 0 0 0 0 0 0 0 0 0 0 0 0 0 0 0 0 0 0 0 0 0
0 0 0 0 0 0 0 0 0 0 0 0 0 0 0 0 0 0 0 0 0 0 0 0 0 0 0 0 0 0 0 0
0 0 0 0 0 0 0 0 0 0 0 0 0 0 0 0 0 0 0 0 0 0 0 0 0 0 0 0 0 0 0 0
0 0 0 0 0 0 0 0 0 0 0 0 0 0 0 0 0 0 0 0 0 0 0 0 0 0 0 0 0 0 0 0
0 0 0 0 0 0 -0 0 0 0 0 0 0 0 0 0 0 0 0 0 0 0 0 0 0 0 0 0 0 0 0 0
0 0 0 0 0 0 0 0 0 0 0 0 0 0 0 0 0 0 0 0 0 0 0 0 0 0 0 0 0 0 0 0
0 0 0 0 0 0 0 0 0 0 0 0 0 0 0 0 0 0 0 0 0 0 0 0 0 -0 0 0 0 0 0 0
0 0 0 0 0 0 0 0 0 0 0 0 0 0 0 0 0 0 0 0 0 0 0 0 0 0 0 0 0 0 0 0
0 0 0 0 0 0 0 0 0 0 0 0 0 0 0 0 0 0 0 0 0 0 0 0 0 0 0 0 0 0 0 0
0 0 0 0 0 0 0 0 0 0 0 0 0 0 0 0 0 0 0 0 0 0 0 0 0 0 0 0 0 0 0 0
0 0 0 0 0 0 0 0 0 0 0 0 0 0 0 0 0 0 0 0 0 0 0 0 0 0 0 0 0 0 0 0
0 0 0 0 0 0 0 0 0 0 0 0 0 0 0 0 0 0 0 0 0 0 0 -0 -0 0 0 0 0 0 0 0
0 0 0 0 0 0 0 0 0 0 0 0 0 0 0 0 0 0 0 0 0 0 0 0 0 0 0 0 0 0 0 0
0 0 0 0 0 0 0 0 0 0 0 0 0 0 0 0 0 -0 0 0 0 0 0 0 0 0 0 -0 -0 -0 -0 0
0 0 0 0 0 0 0 0 0 0 0 0 0 0 0 0 0 0 -0 -0 0 0 0 0 0 0 -0 -0 -0 -0 -0 -0
Wind_Speed_500mb
23 23 19 24 24 23 24 31 36 35 29 24 15 11 9 11 11 9 15 15 18 19 19 19 20 24 18 21 20 18 22 26
25 25 20 18 20 23 23 30 34 44 32 26 18 10 9 8 11 13 16 16 19 19 17 19 20 20 23 21 18 21 23 26
26 22 14 13 14 13 17 27 43 47 34 26 18 13 9 9 12 16 16 16 17 16 16 17 18 19 21 23 22 22 21 23
26 28 27 15 4 8 12 25 40 48 48 37 19 13 13 12 12 14 15 15 14 14 17 17 16 17 19 20 22 23 22 22
33 22 27 16 11 1 10 20 35 43 45 38 19 14 14 14 13 15 14 13 14 16 17 17 19 21 22 22 24 23 23 24
23 29 22 18 17 9 8 18 27 34 41 42 24 17 14 15 13 12 14 15 16 15 17 19 22 20 22 23 26 27 28 27
24 25 20 21 18 15 14 18 23 28 34 30 24 22 17 14 13 14 16 17 17 16 17 19 23 22 24 25 27 27 27 27
25 28 22 20 22 23 21 19 22 26 23 25 29 22 18 16 15 15 17 17 19 19 18 22 20 21 22 22 27 25 25 25
25 27 30 31 25 18 31 24 26 20 17 25 28 18 16 15 16 19 17 16 17 19 17 20 21 20 20 21 20 21 22 20
19 27 37 35 26 34 26 27 24 19 18 23 21 15 15 17 15 19 17 18 16 15 19 19 21 18 20 22 20 21 20 20
13 18 27 31 24 25 22 22 24 23 26 19 21 21 19 18 19 19 18 15 15 17 19 17 20 17 20 22 23 22 25 25
11 11 18 25 27 25 23 24 24 24 21 18 21 15 19 21 22 23 21 15 16 16 17 20 20 18 20 22 22 24 25 24
14 14 15 18 22 23 21 24 26 21 21 24 18 18 20 24 24 25 22 14 16 16 17 20 21 20 18 21 22 24 25 23
15 16 15 14 18 18 19 21 23 20 19 18 16 17 23 24 23 19 17 18 17 15 17 17 21 15 18 18 19 21 25 23
16 18 14 18 16 16 20 20 22 21 17 16 16 15 23 23 20 16 16 18 18 17 16 17 17 16 16 17 18 19 19 28
18 18 20 24 26 22 26 22 22 23 19 16 16 15 16 18 16 11 13 16 14 13 13 16 16 15 16 20 18 18 20 24
19 17 19 19 23 26 22 22 23 25 21 18 19 17 18 16 14 14 11 14 15 17 18 19 17 14 18 21 21 20 20 20
22 23 26 27 27 28 25 24 27 26 26 26 20 23 23 19 17 19 16 17 19 16 15 17 16 15 18 21 20 21 17 17
28 29 30 31 30 33 35 31 26 26 30 34 29 23 26 26 27 25 21 22 18 21 16 14 12 16 17 19 18 18 15 13
33 35 34 38 38 38 38 39 39 35 30 32 39 34 29 31 32 32 27 27 22 22 21 15 15 12 11 12 13 13 13 16
Wind_Direction_500mb
131 122 106 108 86 70 52 36 26 26 12 12 4 6 24 3 24 17 340 347 327 327 328 328 331 328 329 316 305 288 258 252
133 129 129 100 77 70 50 35 31 25 23 11 14 15 29 21 342 1 342 340 331 334 330 337 337 334 333 327 321 303 289 270
149 144 118 99 70 66 47 31 27 28 20 13 12 28 16 6 349 335 341 341 337 341 336 342 335 332 330 327 322 313 308 285
148 140 130 132 178 58 26 19 23 18 15 17 4 9 1 346 339 329 346 340 333 345 340 339 338 337 332 330 318 314 306 296
161 174 158 181 200 118 10 8 17 9 11 10 353 358 351 339 330 331 341 343 339 346 331 335 330 330 335 330 324 319 311 297
199 179 193 225 211 221 322 350 359 360 0 359 350 342 347 332 326 324 319 332 329 339 331 330 318 331 327 323 323 318 305 294
212 207 226 222 219 226 269 318 340 345 349 350 347 340 338 326 319 314 309 325 315 324 319 314 327 332 329 325 319 313 306 296
222 221 234 223 231 249 268 289 312 325 342 349 344 340 334 325 317 305 314 314 312 313 315 314 325 323 317 311 323 321 313 307
233 233 238 247 260 263 269 267 288 312 324 343 342 328 322 331 338 321 313 301 308 308 312 309 310 314 307 322 332 334 331 307
243 237 244 250 284 257 254 250 272 295 312 328 327 316 312 316 321 324 314 305 305 309 305 301 296 306 310 318 323 333 334 319
280 259 244 245 242 245 253 254 273 294 301 320 323 320 316 312 313 314 304 305 298 299 305 300 304 312 306 314 326 325 322 326
268 282 265 256 246 256 257 256 268 280 306 307 304 309 305 306 309 303 302 299 294 296 301 304 300 287 287 317 320 321 325 315
270 292 292 273 256 256 267 262 269 274 297 313 308 299 309 313 309 308 307 305 302 300 301 299 287 289 300 311 317 318 334 313
285 293 288 294 280 275 269 260 257 256 290 290 288 286 305 309 316 318 315 304 301 299 303 291 288 303 311 311 315 324 336 332
315 297 294 296 286 288 282 269 251 242 268 281 278 276 308 325 324 325 337 324 314 304 297 295 297 304 320 321 317 327 339 358
343 339 344 337 332 311 291 272 264 248 259 276 277 274 300 322 311 322 346 354 346 333 313 298 302 318 329 328 331 318 323 343
10 7 0 352 336 325 303 276 268 258 259 278 285 272 281 290 302 307 311 340 342 322 328 296 300 318 330 333 331 327 311 330
6 1 359 358 358 341 322 301 286 268 259 269 286 276 273 283 282 287 282 313 321 333 331 310 283 299 315 325 327 322 315 319
345 343 342 342 338 325 320 312 304 285 273 280 278 281 268 279 273 279 291 293 303 306 308 324 294 295 297 316 333 336 334 353
340 339 342 344 342 333 321 318 309 301 289 271 268 268 272 274 278 274 286 282 289 310 295 299 305 292 285 316 341 24 14 19
Wind_Speed_850mb
23 23 19 24 24 23 24 31 36 35 29 24 15 11 9 11 11 9 15 15 18 19 19 19 20 24 18 21 20 18 22 26
25 25 20 18 20 23 23 30 34 44 32 26 18 10 9 8 11 13 16 16 19 19 17 19 20 20 23 21 18 21 23 26
26 22 14 13 14 13 17 27 43 47 34 26 18 13 9 9 12 16 16 16 17 16 16 17 18 19 21 23 22 22 21 23
26 28 27 15 4 8 12 25 40 48 48 37 19 13 13 12 12 14 15 15 14 14 17 17 16 17 19 20 22 23 22 22
33 22 27 16 11 1 10 20 35 43 45 38 19 14 14 14 13 15 14 13 14 16 17 17 19 21 22 22 24 23 23 24
23 29 22 18 17 9 8 18 27 34 41 42 24 17 14 15 13 12 14 15 16 15 17 19 22 20 22 23 26 27 28 27
24 25 20 21 18 15 14 18 23 28 34 30 24 22 17 14 13 14 16 17 17 16 17 19 23 22 24 25 27 27 27 27
25 28 22 20 22 23 21 19 22 26 23 25 29 22 18 16 15 15 17 17 19 19 18 22 20 21 22 22 27 25 25 25
25 27 30 31 25 18 31 24 26 20 17 25 28 18 16 15 16 19 17 16 17 19 17 20 21 20 20 21 20 21 22 20
19 27 37 35 26 34 26 27 24 19 18 23 21 15 15 17 15 19 17 18 16 15 19 19 21 18 20 22 20 21 20 20
13 18 27 31 24 25 22 22 24 23 26 19 21 21 19 18 19 19 18 15 15 17 19 17 20 17 20 22 23 22 25 25
11 11 18 25 27 25 23 24 24 24 21 18 21 15 19 21 22 23 21 15 16 16 17 20 20 18 20 22 22 24 25 24
14 14 15 18 22 23 21 24 26 21 21 24 18 18 20 24 24 25 22 14 16 16 17 20 21 20 18 21 22 24 25 23
15 16 15 14 18 18 19 21 23 20 19 18 16 17 23 24 23 19 17 18 17 15 17 17 21 15 18 18 19 21 25 23
16 18 14 18 16 16 20 20 22 21 17 16 16 15 23 23 20 16 16 18 18 17 16 17 17 16 16 17 18 19 19 28
18 18 20 24 26 22 26 22 22 23 19 16 16 15 16 18 16 11 13 16 14 13 13 16 16 15 16 20 18 18 20 24
19 17 19 19 23 26 22 22 23 25 21 18 19 17 18 16 14 14 11 14 15 17 18 19 17 14 18 21 21 20 20 20
22 23 26 27 27 28 25 24 27 26 26 26 20 23 23 19 17 19 16 17 19 16 15 17 16 15 18 21 20 21 17 17
28 29 30 31 30 33 35 31 26 26 30 34 29 23 26 26 27 25 21 22 18 21 16 14 12 16 17 19 18 18 15 13
33 35 34 38 38 38 38 39 39 35 30 32 39 34 29 31 32 32 27 27 22 22 21 15 15 12 11 12 13 13 13 16
Wind_Direction_850mb
131 122 106 108 86 70 52 36 26 26 12 12 4 6 24 3 24 17 340 347 327 327 328 328 331 328 329 316 305 288 258 252
133 129 129 100 77 70 50 35 31 25 23 11 14 15 29 21 342 1 342 340 331 334 330 337 337 334 333 327 321 303 289 270
149 144 118 99 70 66 47 31 27 28 20 13 12 28 16 6 349 335 341 341 337 341 336 342 335 332 330 327 322 313 308 285
148 140 130 132 178 58 26 19 23 18 15 17 4 9 1 346 339 329 346 340 333 345 340 339 338 337 332 330 318 314 306 296
161 174 158 181 200 118 10 8 17 9 11 10 353 358 351 339 330 331 341 343 339 346 331 335 330 330 335 330 324 319 311 297
199 179 193 225 211 221 322 350 359 360 0 359 350 342 347 332 326 324 319 332 329 339 331 330 318 331 327 323 323 318 305 294
212 207 226 222 219 226 269 318 340 345 349 350 347 340 338 326 319 314 309 325 315 324 319 314 327 332 329 325 319 313 306 296
222 221 234 223 231 249 268 289 312 325 342 349 344 340 334 325 317 305 314 314 312 313 315 314 325 323 317 311 323 321 313 307
233 233 238 247 260 263 269 267 288 312 324 343 342 328 322 331 338 321 313 301 308 308 312 309 310 314 307 322 332 334 331 307
243 237 244 250 284 257 254 250 272 295 312 328 327 316 312 316 321 324 314 305 305 309 305 301 296 306 310 318 323 333 334 319
280 259 244 245 242 245 253 254 273 294 301 320 323 320 316 312 313 314 304 305 298 299 305 300 304 312 306 314 326 325 322 326
268 282 265 256 246 256 257 256 268 280 306 307 304 309 305 306 309 303 302 299 294 296 301 304 300 287 287 317 320 321 325 315
270 292 292 273 256 256 267 262 269 274 297 313 308 299 309 313 309 308 307 305 302 300 301 299 287 289 300 311 317 318 334 313
285 293 288 294 280 275 269 260 257 256 290 290 288 286 305 309 316 318 315 304 301 299 303 291 288 303 311 311 315 324 336 332
315 297 294 296 286 288 282 269 251 242 268 281 278 276 308 325 324 325 337 324 314 304 297 295 297 304 320 321 317 327 339 358
343 339 344 337 332 311 291 272 264 248 259 276 277 274 300 322 311 322 346 354 346 333 313 298 302 318 329 328 331 318 323 343
10 7 0 352 336 325 303 276 268 258 259 278 285 272 281 290 302 307 311 340 342 322 328 296 300 318 330 333 331 327 311 330
6 1 359 358 358 341 322 301 286 268 259 269 286 276 273 283 282 287 282 313 321 333 331 310 283 299 315 325 327 322 315 319
345 343 342 342 338 325 320 312 304 285 273 280 278 281 268 279 273 279 291 293 303 306 308 324 294 295 297 316 333 336 334 353
340 339 342 344 342 333 321 318 309 301 289 271 268 268 272 274 278 274 286 282 289 310 295 299 305 292 285 316 341 24 14 19